"Pseudo-MPEC" for 25010D

Created 2026 Apr 29 17:02:01 UT using Find_Orb

Click here for an explanation of pseudo-MPECs

 
 Astrometry: 
     25010D   BK251221:2104169  184.57651   +17.54490    550 590m16.6 GV     P13
     25010D   BK251221:2105048  184.58048   +17.54232    250 320m14.7 GV     P13
     25010D   BK251221:2108325  184.59688   +17.53267    430 410m15.6 GV     P13
     25010D   BK251221:2115119  184.62867   +17.51398    480 330m15.8 GV     P13
     25010D   BK251221:2119276  184.64853   +17.50165    240 440m15.3 GV     P13
     25010D   BK251221:2126230  184.68135   +17.48136    300 280m14.8 GV     P13
     25010D   BK251221:2132304  184.70961   +17.46362    420 500m16.9 GV     P13
     25010D   BK251225:2145113  215.95159   +02.40365    260 240m15.7 GV     P13
     25010D   BK251225:2148392  215.95903   +02.39615    280 200m15.4 GV     P13
     25010D   BK251225:2152230  215.96630   +02.38848    330 350m16.8 GV     P13
     25010D   BK251225:2155512  215.97306   +02.38118    290 250m15.4 GV     P13
     25010D   BK251225:2158311  215.97852   +02.37555    440 360m16.8 GV     P13
     25010D  KBK260411:1447156  142.22342   +40.10302    310 380m16.2 GV     P13
     25010D  KBK260411:1449394  142.24176   +40.09640    280 350m15.6 GV     P13
     25010D  KBK260411:1454592  142.28242   +40.08101    370 230m15.4 GV     P13
     25010D   BK260414:1414325  176.67378   +28.85906    490 350m16.5 GV     P13
     25010D   BK260414:1415365  176.67654   +28.85600      .32   15.9 GV     P13
     25010D   BK260414:1417283  176.68151   +28.85050    370 380m16.4 GV     P13
     25010D   BK260414:1418482  176.68507   +28.84647    280 250m15.7 GV     P13
     25010D   BK260414:1425119  176.70198   +28.82742    380 440m15.7 GV     P13
     25010D   BK260414:1428557  176.71166   +28.81632    400 280m15.1 GV     P13
     25010D   BK260414:1432235  176.72076   +28.80582    250 320m14.9 GV     P13
     25010D   BK260414:1433274  176.72354   +28.80274    500 390m16.8 GV     P13
     25010D   BK260417:1615345  196.87287   +15.13191    380 310m16.7 GV     P13
     25010D   BK260417:1618143  196.87655   +15.12332    310 370m16.1 GV     P13
     25010D   BK260417:1620222  196.87943   +15.11657    230 200m16.0 GV     P13
     25010D   BK260417:1623500  196.88424   +15.10546    340 330m16.1 GV     P13
     25010D   BK260417:1627023  196.88868   +15.09525    280 390m16.1 GV     P13
     25010D   BK260417:1629109  196.89174   +15.08824    470 330m16.7 GV     P13
     25010D   BK260417:1632460  196.89673   +15.07677    420 310m16.7 GV     P13
     25010D   BK260417:1634219  196.89901   +15.07156    330 240m16.1 GV     P13
     25010D   BK260417:1637179  196.90317   +15.06207    410 270m16.3 GV     P13

Station data:
(P13) Baihuashan Observatory, Beijing  (N39.837554 E115.573330)  China.
   Observers Z. Wang, B. Liu. Measurer Z. Wang. 0.28-m f/2.2 reflector + CMO.

Orbital elements:  25010D
   Perilune 2026 Aug 5.28777244 +/- 0.0015583 TT =  6:54:23.538 (JD 2461257.78777244)
Epoch 2026 Aug  5.25 TT; AMR 0.010005 +/- 0.00039796 m2/kg      Gray
q  1213.36115709 +/- 21.887         (J2000.0)
H   26.32 G 0.15                    Peri.   84.60367247 +/- 0.4673
                                    Node   140.05273444 +/- 0.5558
e   1.0512726243 +/- 0.00088025     Incl.  126.53655696 +/- 0.0855
From 32 observations 2025 Dec. 21-2026 Apr. 17; mean residual 0".508/1.34 sigmas
IMPACT at 5 Aug 2026 6:42:49.63 lat +15.66832 lon 271.52782
Residuals in arcseconds: 
251221 P13 .316- .834+    251225 P13 .734+ .062-    260414 P13 .253- .293+    
251221 P13 .139+ .332-    260411 P13 .546+ .388-    260417 P13 .341- .455+    
251221 P13 .507- .250+    260411 P13 .544+ .472+    260417 P13 .275- .091+    
251221 P13 .109- 1.37+    260411 P13 .319- .544+    260417 P13 .478- .299+    
251221 P13 1.04- 1.11+    260414 P13 .310+ .624-    260417 P13 .410- .213+    
251221 P13 .158+ .319+    260414 P13 .100+ .346-    260417 P13 .455- .490+    
251221 P13 .652- .937+    260414 P13 .213+ .361-    260417 P13 .209- .074+    
251225 P13 .119+ .360-    260414 P13 .329+ .686-    260417 P13 .319- .393+    
251225 P13 1.43+ 1.01-    260414 P13 .386+ .663-    260417 P13 .209- .227+    
251225 P13 .527+ .238-    260414 P13 .102- .231-    260417 P13 .145- .242+    
251225 P13 .015- .097-    260414 P13 .176- .277-    

